Theta_e
321 320 320 319 319 318 315 314 314 314 314 314 314 313 314 315 314 312 313 313 313 313 314 310 310 309 310 311 311 309 310 309 307 305 304 305 303 304 309 307 308 310 308 306 305 302 301 298 299 303 304 304 305 304 304 303 303 304 303 304 306 304 305
321 320 320 320 318 318 315 315 313 313 313 313 313 313 312 313 315 312 311 312 312 312 315 310 310 309 308 308 307 307 307 308 309 308 305 304 305 304 304 305 305 305 305 304 303 303 301 297 297 298 298 301 301 301 302 302 302 303 303 304 304 304 305
320 318 318 317 316 316 314 313 312 311 311 311 311 311 310 311 311 312 311 311 311 313 313 309 308 308 307 307 307 308 307 306 306 307 306 305 304 304 304 304 302 301 300 300 299 299 299 300 296 297 297 296 294 297 300 300 300 302 301 303 301 302 302
317 316 314 313 314 314 312 311 310 310 310 309 309 309 309 309 310 312 309 310 311 313 310 308 307 307 307 307 307 306 306 306 305 304 304 304 303 303 302 302 301 300 298 297 297 298 297 296 295 295 295 296 295 294 297 299 300 300 300 300 300 300 301
317 316 313 312 313 312 310 309 309 309 308 308 307 306 306 308 309 306 308 307 308 307 306 306 305 304 305 306 306 305 304 304 304 304 302 302 301 301 300 300 300 300 300 298 298 297 296 295 294 292 293 294 294 294 296 297 298 297 299 298 299 299 300
317 316 315 314 313 310 309 308 307 306 306 306 305 305 305 306 307 306 305 305 305 306 306 305 305 304 303 304 305 304 303 303 302 302 302 301 301 300 299 300 300 299 298 298 297 296 295 295 294 291 292 293 291 291 293 294 294 296 298 297 298 299 299
316 316 315 313 312 310 309 308 307 306 305 305 304 304 304 305 305 305 305 304 304 305 305 305 304 304 303 303 303 303 302 302 302 301 301 301 300 300 300 299 298 298 297 297 296 296 294 293 292 291 291 291 291 290 292 292 294 292 294 296 298 298 298
313 313 312 312 310 309 308 307 306 305 305 304 304 304 305 304 304 305 305 303 304 303 303 302 304 303 302 303 303 304 304 302 302 302 301 301 300 299 298 298 298 297 297 297 296 295 295 294 293 292 291 288 288 289 289 291 291 291 292 295 297 297 297
314 312 312 311 309 309 308 306 305 305 305 304 305 304 304 303 303 302 303 302 303 303 303 302 302 302 302 302 301 301 302 305 301 300 300 300 299 298 297 297 297 296 296 296 296 295 294 295 294 293 292 290 287 285 288 288 289 290 293 292 295 296 297
311 311 310 309 309 308 308 306 305 304 305 305 306 305 303 303 303 302 301 301 301 301 301 302 302 301 301 301 300 300 300 301 302 300 300 299 298 298 297 297 296 295 295 296 295 296 296 294 295 293 293 291 290 287 286 286 288 288 291 293 291 294 296
311 310 309 308 309 308 307 306 305 305 304 306 305 304 301 301 301 303 299 299 299 299 300 300 300 301 301 301 300 300 300 300 300 300 300 298 297 298 297 296 295 294 295 294 295 295 295 294 293 293 292 292 292 289 288 286 287 290 290 293 293 292 295
311 311 310 309 308 307 305 305 304 303 304 304 303 300 299 299 298 298 297 297 297 298 298 298 299 299 300 300 301 299 299 299 299 298 299 298 298 297 295 295 294 294 294 294 294 294 294 294 293 293 292 292 292 291 289 289 286 290 292 291 293 295 295
312 310 309 307 307 306 304 304 303 302 301 302 300 300 298 298 297 296 296 296 297 297 297 298 298 298 299 299 300 299 299 299 298 297 297 297 297 296 295 294 294 294 294 293 293 293 292 293 293 292 292 292 291 291 292 290 288 288 292 292 293 294 295
309 308 306 305 304 304 304 304 302 302 301 300 299 298 297 296 296 296 295 297 295 296 296 296 297 297 298 298 299 299 299 298 297 297 297 296 296 295 295 294 294 294 294 292 292 292 292 292 292 291 293 291 291 291 291 290 288 289 291 293 293 294 295
307 306 305 304 304 303 303 302 303 302 301 300 299 298 297 296 295 295 295 294 294 295 295 295 295 296 296 297 297 300 298 297 296 296 296 295 294 296 294 293 294 294 293 292 291 291 291 290 291 290 290 291 290 291 292 290 289 289 288 291 292 294 293
305 304 303 303 302 302 302 302 302 300 299 299 299 297 296 295 295 294 294 293 293 293 294 294 294 295 295 295 296 297 298 297 296 295 295 294 294 294 293 294 293 293 293 290 290 290 290 290 291 290 290 291 290 290 291 292 290 289 289 289 292 291 292
304 303 302 302 301 301 302 302 302 300 299 298 297 297 296 295 294 293 293 292 292 292 292 293 293 293 294 294 295 296 296 296 295 295 295 294 294 294 293 292 292 292 292 290 289 289 289 289 289 290 290 290 291 290 291 292 292 290 290 289 290 290 292
302 302 301 301 301 301 301 301 302 300 298 297 297 296 296 295 293 293 293 292 291 291 291 292 292 292 293 293 294 295 296 296 295 295 295 295 299 294 294 292 292 292 290 289 289 288 289 289 290 290 289 289 290 291 292 291 291 291 290 289 289 291 292
301 301 301 301 301 301 301 301 300 300 299 297 296 295 294 294 294 292 292 291 291 291 291 291 291 291 291 292 293 294 295 295 296 295 294 295 294 295 293 292 292 291 290 289 289 289 288 288 289 289 289 289 289 290 290 290 291 291 290 290 289 289 291
301 301 301 300 301 301 300 300 300 299 299 297 295 294 293 292 293 292 291 291 291 291 291 290 290 290 290 291 292 293 294 294 295 295 294 294 294 293 294 293 292 291 290 289 289 289 288 289 290 289 291 289 289 289 289 289 290 290 289 289 289 289 289
300 300 300 300 300 300 300 300 300 300 299 296 295 294 292 292 292 292 291 291 291 292 290 290 290 289 290 290 291 292 292 294 294 294 294 294 294 293 293 293 292 292 290 290 290 289 289 289 289 290 289 289 289 289 288 289 289 289 289 288 288 288 289
300 301 300 300 300 300 300 300 299 299 298 297 297 294 293 292 291 291 290 290 290 291 291 291 291 290 290 290 290 291 292 293 294 294 293 293 293 293 293 293 292 292 297 298 299 297 297 297 292 290 289 289 290 289 288 288 289 288 288 288 288 289 288
300 300 299 299 299 299 299 299 299 297 296 296 295 294 293 293 291 290 290 289 289 290 290 291 294 294 294 292 291 291 293 293 295 293 294 293 293 293 293 293 298 299 299 300 299 297 295 295 296 295 292 290 290 289 288 288 288 288 288 287 287 287 287
299 299 299 299 299 299 299 299 297 296 294 294 293 294 292 291 290 290 289 288 288 290 290 292 293 292 292 295 294 292 293 294 294 292 293 293 291 293 292 292 292 297 299 300 297 296 295 294 293 293 294 294 295 292 289 288 288 288 288 288 288 288 287
299 298 298 298 299 299 299 297 296 294 293 292 292 291 290 290 289 289 289 288 288 289 289 294 291 292 292 293 296 294 293 294 294 292 291 291 292 292 291 292 292 293 294 294 295 293 293 294 293 293 293 293 293 293 293 291 290 288 288 287 287 288 288
298 298 298 298 299 298 298 297 296 294 292 292 291 290 289 289 288 289 288 288 288 288 288 293 291 292 292 292 293 294 292 292 292 291 291 292 291 291 291 292 291 292 292 299 298 291 289 290 293 293 293 294 293 293 291 290 291 292 290 289 288 288 288
298 298 298 298 298 298 298 297 296 295 294 292 290 290 289 289 289 288 288 287 287 287 288 292 291 292 292 292 292 293 290 291 290 290 291 292 291 290 290 290 290 291 290 290 290 290 290 289 290 290 290 289 289 291 292 292 291 292 293 291 289 288 289
298 297 297 298 297 297 297 296 296 296 294 292 291 290 290 289 289 290 288 287 287 287 289 292 291 291 291 292 292 292 289 291 290 289 290 291 291 290 289 290 289 289 289 290 292 293 291 290 290 290 289 289 289 289 289 289 290 291 292 291 290 289 290
297 297 297 297 297 296 295 296 295 295 295 293 292 292 290 291 291 289 288 287 287 286 288 291 291 291 291 291 293 292 288 288 288 289 289 290 290 290 290 290 289 289 290 290 293 293 293 292 289 289 288 288 288 288 289 293 293 293 293 291 291 291 291
297 296 297 296 295 295 295 294 294 295 294 293 293 292 292 292 292 290 289 288 286 286 287 291 291 291 291 291 291 288 287 288 288 288 288 289 289 290 290 292 291 291 292 290 293 291 291 292 289 288 287 287 288 287 288 290 292 292 292 292 291 291 291
297 296 296 296 295 294 294 294 294 295 293 292 292 292 293 292 292 292 290 287 287 287 287 291 291 291 291 291 291 287 288 287 286 287 287 288 289 288 290 298 299 292 291 291 292 290 290 291 288 287 287 286 286 286 287 289 290 291 292 292 292 291 291
297 296 295 295 295 294 294 294 294 293 292 292 292 292 294 293 292 292 291 289 296 289 287 291 292 290 291 291 290 286 288 286 287 286 286 288 289 289 289 292 295 295 293 292 290 290 290 290 288 287 287 286 286 286 287 288 288 288 289 289 289 289 290
296 296 295 294 294 294 295 294 293 292 291 291 291 291 293 293 293 293 292 292 294 290 289 289 291 291 291 291 292 289 287 287 288 286 286 289 289 288 288 289 292 291 290 290 290 289 289 290 289 288 287 286 286 286 288 288 290 290 288 288 288 289 289
296 295 295 295 295 295 295 294 293 292 292 292 291 291 292 292 293 292 292 292 291 290 290 288 290 290 291 291 291 290 286 287 286 285 284 286 285 286 287 288 289 291 290 290 289 289 290 290 290 290 288 287 287 289 290 288 289 292 288 288 288 288 288
296 296 295 295 294 294 294 294 294 293 293 292 292 292 292 292 291 291 290 293 293 291 294 296 288 291 290 290 290 291 288 287 287 287 285 285 286 287 287 287 288 290 290 289 289 290 290 290 290 291 289 289 289 289 290 290 288 288 287 287 287 287 287
296 297 296 295 294 293 293 294 294 294 293 293 293 293 293 293 292 291 290 291 292 292 291 294 294 291 290 290 290 290 290 288 289 289 285 285 285 287 287 287 289 292 289 289 289 290 290 290 291 289 289 289 289 289 290 288 288 287 286 286 286 286 286
296 296 295 294 294 294 294 294 294 294 294 294 293 293 293 293 292 291 291 290 291 290 289 289 293 292 290 290 290 290 289 289 289 288 288 287 286 286 287 287 289 289 289 289 289 289 289 290 289 289 289 289 289 290 288 287 286 286 286 285 285 285 285
Wind_Speed
8 8 7 6 5 5 6 6 7 7 7 7 7 7 6 6 6 6 6 6 6 5 5 6 5 4 5 4 4 4 4 5 5 7 5 6 6 5 5 7 6 6 7 8 5 3 2 9 9 3 3 10 4 5 8 10 11 9 10 9 10 11 9
8 7 6 6 6 5 8 7 8 7 7 8 8 7 6 6 5 5 5 5 5 4 4 5 4 4 4 4 4 5 5 6 5 4 5 6 6 6 5 6 6 6 6 7 7 7 6 5 7 11 15 6 2 5 7 9 10 8 10 8 10 10 9
6 6 6 7 6 6 8 7 6 7 6 6 7 7 6 5 6 5 5 5 4 5 4 4 3 3 3 3 4 4 5 7 6 7 8 7 7 7 7 6 6 5 5 6 7 7 4 4 6 10 9 15 16 7 6 11 11 7 9 7 9 9 9
8 8 7 6 6 7 8 7 6 6 6 6 6 6 5 5 5 5 5 4 5 5 5 5 4 4 4 4 5 7 8 8 8 9 9 8 8 8 7 7 7 7 6 6 6 6 4 4 5 5 8 9 10 14 9 9 9 8 8 8 9 9 9
8 7 8 7 7 8 8 7 6 6 6 6 6 6 5 5 5 5 4 5 6 6 6 4 5 5 5 6 6 7 7 8 8 9 8 8 8 7 8 7 8 8 8 7 6 6 5 5 4 4 6 9 6 5 9 10 4 9 6 9 9 9 9
6 7 7 7 6 8 7 7 7 7 6 6 5 6 4 5 4 6 6 6 6 6 5 6 5 7 6 6 6 7 8 8 8 8 8 7 7 8 8 8 8 9 8 6 7 6 5 4 5 6 5 4 6 9 9 8 7 9 3 8 8 9 9
6 7 6 7 7 7 6 7 6 6 7 6 5 4 3 4 5 4 5 6 5 6 6 6 6 6 6 7 6 7 7 7 8 8 7 7 8 8 8 9 8 8 7 7 6 6 6 6 6 6 6 5 4 7 7 8 7 8 3 6 8 8 8
7 7 6 6 7 8 7 8 6 6 7 5 5 3 4 5 5 6 6 7 6 6 6 6 6 7 6 7 7 7 7 7 8 8 8 9 10 10 10 8 8 7 6 6 5 5 4 4 4 5 6 10 7 5 9 6 7 4 7 9 9 8 9
7 7 7 6 7 7 8 8 7 6 6 6 4 4 4 5 6 6 7 7 6 6 6 6 6 7 7 8 7 7 8 5 8 10 9 10 10 10 9 7 8 6 5 4 4 4 4 4 4 4 5 5 7 10 9 10 9 7 5 10 10 5 9
7 8 9 8 8 7 8 8 7 5 5 5 5 4 5 4 6 6 7 7 7 6 7 6 6 6 7 7 7 7 7 6 8 9 8 9 8 8 8 8 6 5 3 3 3 4 4 3 3 3 4 5 5 5 8 9 10 11 11 11 10 9 10
7 8 9 9 7 8 7 7 5 6 5 5 5 5 6 7 6 7 7 7 7 7 7 7 6 6 6 7 6 6 5 6 8 8 8 8 7 7 7 6 4 5 3 4 5 4 4 5 5 5 5 4 4 5 6 8 9 7 9 11 9 11 12
7 8 7 8 7 8 7 6 5 4 5 6 7 6 7 7 7 7 6 6 7 7 7 7 7 7 6 6 5 6 6 7 9 8 7 7 5 7 6 5 3 4 4 4 4 5 5 6 6 5 5 4 5 3 4 5 9 5 6 9 10 11 11
7 8 7 7 7 7 6 6 6 7 7 6 7 7 7 7 7 7 6 6 7 7 7 7 7 6 6 5 5 7 6 8 9 8 6 5 5 5 5 4 3 3 3 4 5 6 6 5 5 5 5 5 4 3 3 5 7 10 6 7 9 10 11
8 8 8 7 8 7 6 6 7 6 6 7 7 8 7 7 7 6 7 7 7 7 7 7 6 6 6 6 5 6 6 7 8 6 6 5 4 4 4 3 3 4 3 5 5 5 5 5 4 4 4 4 5 5 4 5 7 9 6 5 7 8 10
7 7 8 7 7 7 6 6 6 7 8 6 8 8 8 6 6 6 6 6 6 6 6 6 6 6 7 6 6 4 6 7 7 6 6 4 3 3 3 3 4 4 4 4 4 4 4 4 4 5 4 5 5 6 6 5 6 8 11 8 8 7 8
8 8 8 7 7 6 6 6 7 9 8 7 7 8 7 7 7 6 6 6 6 6 5 5 5 6 6 6 5 4 4 6 6 6 5 4 3 3 4 4 3 3 2 3 3 3 3 3 3 4 5 4 5 6 6 5 6 8 10 10 8 9 8
8 8 8 7 7 6 7 6 7 9 8 7 9 7 7 7 6 5 6 6 6 5 6 5 6 6 5 5 4 4 3 4 4 5 5 4 3 3 4 4 1 1 1 3 3 3 3 3 3 3 4 5 4 6 6 5 6 7 8 10 9 9 9
8 8 8 7 7 7 7 7 7 8 8 8 8 8 7 5 5 5 6 5 5 6 5 5 5 5 4 3 3 3 3 2 4 5 4 4 4 4 4 3 2 1 1 3 3 4 3 4 4 4 5 5 5 6 6 6 7 7 8 10 11 8 9
7 7 7 7 7 7 8 8 8 7 8 9 8 7 6 5 5 5 5 5 5 5 5 5 5 4 4 3 3 3 2 2 3 4 4 3 3 4 4 3 3 2 1 1 2 3 4 4 5 5 5 6 6 6 6 7 7 8 8 9 10 11 8
7 6 6 6 7 7 8 8 8 7 7 9 9 7 6 6 4 5 5 5 5 4 4 4 4 4 3 3 3 3 3 3 2 3 2 3 3 4 4 4 3 2 1 0 1 3 4 5 4 6 5 6 6 6 7 7 8 8 8 9 9 9 10
6 6 5 6 7 8 8 8 8 7 8 9 8 7 6 5 4 4 4 4 3 3 4 4 4 3 3 3 3 3 3 3 2 3 3 2 3 4 4 3 3 2 2 2 2 3 4 4 4 6 7 5 6 7 7 8 8 8 9 9 9 11 9
5 5 6 6 7 8 8 8 7 7 8 8 7 7 6 5 5 5 4 4 4 4 5 4 3 3 3 3 2 3 3 2 1 3 3 1 1 2 3 3 2 4 3 4 5 5 6 6 4 5 8 6 7 7 8 7 8 8 8 8 10 9 10
6 6 7 7 7 8 8 7 8 8 8 8 7 6 5 4 4 4 4 4 4 4 4 3 4 5 4 2 3 3 2 2 1 2 4 2 1 1 2 2 1 2 4 7 8 8 8 10 10 8 8 7 8 7 8 8 9 9 9 10 10 11 12
7 7 7 7 7 8 8 8 9 9 8 7 7 6 5 5 4 3 4 4 4 4 3 3 5 5 7 6 3 4 4 4 4 3 0 3 3 2 2 1 1 4 5 6 6 9 9 11 12 13 14 14 12 9 8 9 9 9 10 10 10 11 11
7 7 7 7 7 8 9 10 9 8 8 9 7 5 5 4 4 3 3 4 4 4 3 4 5 7 9 9 7 5 5 5 4 3 3 2 1 2 3 1 2 3 4 4 5 5 7 11 13 14 15 15 15 15 13 9 10 10 10 10 11 11 12
8 7 7 7 7 8 9 9 9 8 9 8 7 7 5 4 4 3 4 4 4 2 3 6 8 9 9 9 9 7 4 4 3 4 4 3 3 2 2 1 2 4 5 8 7 5 5 7 11 15 15 14 13 15 16 17 14 10 9 10 10 12 12
8 7 7 7 7 8 9 9 7 7 8 8 8 7 5 5 4 4 4 4 3 3 4 6 8 9 9 10 10 7 3 3 3 4 4 4 1 3 3 1 2 5 5 6 6 6 5 6 9 10 10 9 8 11 14 15 15 16 12 9 10 12 14
9 7 7 7 7 8 8 7 8 7 8 8 8 8 6 5 4 4 3 3 4 4 3 5 7 9 9 9 9 7 3 3 3 3 3 3 3 1 2 3 3 4 5 7 7 9 7 8 10 9 9 8 8 9 9 10 10 9 9 9 10 11 13
8 8 8 8 8 7 7 8 8 7 7 6 6 5 4 4 4 4 3 4 4 4 2 5 7 8 8 7 6 3 3 3 3 3 3 3 3 3 3 4 4 6 6 7 11 15 14 10 8 8 9 8 8 8 8 9 14 13 12 11 11 12 12
9 9 9 9 8 7 7 7 7 6 8 7 7 6 6 4 5 5 3 3 4 3 1 2 5 7 7 5 4 3 3 3 3 3 3 3 3 3 3 3 4 5 6 7 13 16 16 13 7 8 8 8 8 7 9 9 12 15 16 17 19 20 21
10 9 9 10 9 7 6 5 5 6 9 8 7 7 5 5 4 5 5 4 4 4 2 0 2 5 5 4 3 3 2 3 3 3 4 3 3 3 4 9 8 4 6 8 14 17 16 10 7 7 7 8 10 10 10 9 9 10 14 16 18 19 20
10 10 10 9 8 8 7 7 6 6 7 7 7 6 6 6 5 4 4 5 6 5 3 3 2 3 4 3 2 2 2 3 4 4 4 5 5 5 6 7 9 8 6 10 16 16 17 11 6 7 6 7 9 10 10 11 11 12 12 12 12 13 13
10 10 10 8 7 8 7 7 7 7 6 6 7 6 6 6 6 6 4 4 4 4 3 2 1 2 3 3 3 1 2 5 4 4 4 3 6 6 5 6 8 10 11 13 15 16 16 15 7 7 6 7 9 11 10 10 11 12 12 12 13 13 14
11 9 9 9 9 7 7 8 7 7 6 6 6 5 6 5 6 5 5 4 4 3 3 3 2 3 3 3 2 4 2 2 0 1 3 3 3 4 7 7 7 10 13 15 15 16 15 15 12 7 7 7 7 10 12 9 13 15 11 12 12 12 12
9 9 8 8 8 8 6 7 7 7 7 6 7 7 5 5 5 4 3 4 4 5 5 5 2 2 3 3 3 3 4 0 1 1 4 4 5 6 6 6 7 10 14 15 15 14 15 14 14 7 9 13 15 15 11 9 9 9 10 10 11 11 12
9 7 8 8 9 8 7 7 6 7 8 7 7 7 6 5 4 4 3 3 3 4 4 3 3 2 3 4 3 4 3 1 1 1 2 3 4 6 6 6 7 12 15 15 13 14 14 13 9 8 13 14 14 15 12 8 9 9 10 10 11 12 13
9 7 8 8 8 8 7 7 7 7 8 8 7 7 6 6 5 5 5 4 3 4 3 3 4 4 3 4 2 3 2 3 3 1 0 2 4 5 6 7 8 14 13 14 13 13 13 11 8 12 13 14 13 11 8 8 8 9 9 10 11 12 13
Wind_Direction
124 132 134 120 110 112 97 90 81 72 64 66 66 58 55 61 62 53 53 59 67 69 75 73 76 67 63 53 61 62 66 69 71 73 63 39 56 11 12 28 27 38 41 42 34 23 314 327 319 22 102 6 5 33 12 7 357 355 350 356 4 2 359
124 129 127 117 117 111 93 75 76 73 66 63 64 64 54 55 59 57 52 61 64 64 69 72 70 71 75 72 57 53 59 53 55 64 67 46 39 29 14 18 26 34 35 36 21 20 21 339 315 345 333 356 62 14 9 9 351 349 349 358 5 357 357
125 120 117 119 113 105 96 91 83 82 76 69 63 61 56 49 56 51 55 58 59 67 65 66 59 51 43 53 54 60 57 58 46 53 56 49 51 47 52 54 50 27 34 26 25 16 4 28 339 332 344 341 337 352 16 357 346 350 343 6 1 358 0
134 126 120 115 114 106 100 94 88 86 81 74 65 55 52 48 49 48 52 56 59 63 67 65 63 60 49 52 56 61 61 60 55 55 56 58 60 56 51 54 60 57 53 52 33 22 31 15 341 333 332 339 320 323 347 354 335 350 336 13 359 360 360
135 131 127 126 118 107 104 99 95 88 75 68 59 58 44 42 51 48 49 55 58 60 61 65 59 58 57 58 58 63 63 61 60 61 61 60 60 62 54 51 55 56 52 50 41 39 36 23 11 337 333 328 308 310 316 335 331 351 330 14 356 356 352
124 122 118 111 103 109 110 105 97 89 83 73 58 66 51 51 57 56 54 57 58 58 62 56 49 51 54 58 62 63 65 65 63 65 65 64 67 65 65 56 58 56 54 46 45 43 32 21 25 0 340 335 318 318 327 339 337 330 347 1 354 350 346
112 113 110 108 110 109 108 103 98 100 94 95 87 82 79 70 65 67 69 66 63 62 62 60 55 51 56 60 59 63 63 62 61 62 65 65 61 63 64 63 55 56 54 46 46 43 31 23 17 7 333 332 316 320 316 331 337 344 326 350 351 344 347
113 109 102 105 114 113 107 102 97 95 98 99 101 99 78 72 66 63 63 61 56 59 58 58 54 53 56 60 58 61 58 57 58 61 59 63 64 64 64 66 64 56 52 48 49 39 31 34 15 352 356 351 343 342 336 320 323 352 323 324 347 343 352
113 103 97 100 102 108 109 106 102 99 100 101 95 84 69 74 69 65 60 57 55 53 53 55 56 55 55 61 58 60 61 56 64 63 67 68 68 68 69 66 65 57 46 44 43 36 32 19 7 358 4 7 356 340 339 332 335 326 340 335 333 0 350
108 108 111 107 106 103 105 104 108 107 98 93 88 76 72 65 68 66 61 54 50 48 47 43 48 54 59 61 63 63 64 61 68 70 72 73 69 71 68 65 68 59 41 32 23 26 12 7 8 3 12 15 355 344 345 336 330 332 335 348 334 331 340
105 107 112 113 111 108 101 100 101 100 95 90 88 85 76 70 61 61 61 57 52 50 47 41 42 41 51 62 67 69 73 69 65 68 72 74 71 74 72 67 61 56 32 27 22 2 7 5 4 7 7 359 1 14 341 333 318 324 324 328 327 323 330
103 106 107 109 112 107 105 105 102 99 86 87 88 81 75 68 66 58 59 57 52 50 45 40 37 39 41 54 59 66 59 68 73 74 70 75 72 75 73 68 53 52 27 25 17 16 12 11 7 5 2 3 354 3 327 327 321 319 327 315 320 318 317
109 112 114 113 107 106 108 106 104 97 101 94 90 85 76 74 67 64 57 57 54 49 47 40 37 39 44 43 54 62 57 73 80 82 78 74 82 79 77 68 55 52 32 33 28 21 18 13 11 3 357 352 337 324 305 314 317 316 324 310 312 310 318
114 114 111 109 107 107 108 106 105 108 94 89 91 81 79 73 69 67 60 55 54 51 49 42 34 41 44 38 37 66 66 75 86 90 90 80 77 83 84 83 59 46 46 46 26 18 16 9 0 353 339 338 330 319 320 316 316 311 305 303 305 315 317
115 110 110 110 108 107 106 104 106 96 94 92 89 85 80 74 70 64 64 56 56 55 53 48 40 46 43 37 27 43 80 84 91 97 95 91 87 91 94 79 54 51 46 52 26 20 3 359 355 347 339 339 327 322 317 315 308 306 311 316 313 310 308
120 117 113 112 110 109 105 103 102 101 98 91 84 85 83 79 72 69 67 59 57 57 51 52 46 50 45 42 34 23 63 100 108 108 104 117 122 106 71 67 65 68 48 48 15 360 358 352 344 342 329 322 317 308 306 302 302 303 305 308 309 311 312
121 119 117 118 115 114 111 102 103 101 101 96 90 82 83 83 79 74 72 63 60 59 51 46 47 45 46 41 35 31 42 103 108 117 128 139 133 102 96 79 76 85 73 56 359 358 349 341 331 326 317 309 298 295 291 292 288 287 294 303 310 308 309
123 121 122 122 120 118 108 103 105 108 105 98 95 92 83 79 81 74 71 67 64 57 53 51 51 42 38 34 37 42 35 104 121 129 140 154 140 115 110 132 160 152 85 50 347 355 335 335 317 311 310 303 299 290 293 291 290 284 288 295 298 296 299
126 128 130 127 126 117 108 108 110 108 107 102 95 91 94 86 83 79 72 69 66 63 56 55 52 47 33 26 29 27 36 58 123 134 136 133 129 138 136 159 165 161 130 81 342 326 324 316 309 308 305 304 299 297 294 295 290 290 287 285 293 301 301
129 131 131 131 124 115 113 116 114 113 111 107 105 101 95 92 78 79 74 69 63 63 62 54 51 40 39 31 27 25 14 35 71 135 148 145 133 143 153 151 164 177 174 206 309 314 302 307 305 305 301 299 300 301 301 297 299 298 294 292 293 289 296
130 127 128 128 124 120 118 117 117 116 111 107 106 107 105 99 90 79 76 73 67 66 60 53 42 32 34 29 27 22 10 36 40 147 159 169 154 162 157 141 162 202 213 225 253 297 285 293 297 302 302 301 304 306 303 303 303 302 300 298 298 303 302
123 123 126 127 125 124 123 121 117 114 108 105 105 106 106 103 97 86 70 68 61 51 55 44 29 24 19 22 37 17 359 16 37 156 166 183 219 157 136 159 180 222 242 282 274 288 297 295 299 303 305 310 308 309 305 303 303 302 300 302 303 302 305
127 127 129 130 130 125 122 118 115 112 108 106 107 107 104 100 96 93 84 67 61 54 49 32 24 18 14 20 24 24 6 349 24 193 169 182 242 33 123 160 193 217 263 268 275 297 305 309 311 309 305 312 311 309 305 307 306 304 305 308 309 312 312
135 135 136 131 127 122 121 121 119 117 115 113 109 107 101 96 90 85 89 87 66 58 41 30 19 37 41 44 56 46 29 12 26 12 209 199 195 118 111 123 250 271 269 286 294 296 310 317 319 318 316 314 311 308 309 309 301 303 308 306 307 309 306
140 141 137 135 129 123 124 125 125 125 121 112 110 107 102 102 100 96 89 75 67 55 45 19 40 54 49 46 51 57 47 41 39 43 37 328 268 117 156 212 271 272 275 279 300 315 318 319 319 320 320 318 316 311 303 294 298 306 304 309 310 307 306
145 144 143 138 132 126 126 129 132 131 125 124 120 115 121 114 109 107 95 89 75 54 52 22 39 50 53 57 61 63 46 39 32 29 20 17 73 131 188 227 274 289 283 302 318 318 316 314 320 322 320 321 319 316 312 308 300 289 291 298 298 302 303
148 147 142 138 134 129 130 136 140 134 128 126 125 126 130 127 124 101 98 98 87 59 46 25 44 52 54 57 61 61 48 43 30 28 25 19 62 160 207 211 270 307 321 325 319 319 318 319 324 322 323 323 319 314 313 309 307 302 299 293 297 298 299
147 145 143 139 135 133 132 133 134 139 137 138 137 145 148 138 131 114 106 104 91 67 37 27 53 57 57 57 52 54 39 41 33 24 15 19 18 320 270 261 266 299 320 326 318 317 327 333 325 320 320 320 318 313 310 311 309 309 304 299 294 292 294
148 147 145 141 137 138 137 139 138 142 136 137 136 131 138 136 135 133 129 101 87 73 33 40 63 63 63 62 63 43 35 41 33 19 13 9 355 328 275 274 294 315 322 320 315 322 331 337 324 322 322 318 316 312 309 299 301 299 297 297 297 297 298
151 151 148 144 143 145 143 140 136 132 129 138 140 150 161 162 158 149 146 121 107 100 56 36 65 68 58 57 62 41 35 31 31 18 359 345 324 324 331 309 287 297 312 313 318 326 329 340 323 323 320 318 314 316 314 315 313 309 307 305 303 302 301
153 153 151 150 150 148 144 139 142 138 134 140 146 161 161 158 169 164 154 156 152 139 156 254 82 69 64 58 71 63 44 50 24 20 351 333 323 337 329 334 330 322 320 317 322 326 326 336 325 317 320 322 327 327 321 324 323 317 312 309 308 307 306
154 155 153 154 152 152 156 156 152 136 136 136 147 154 157 164 179 180 169 165 175 153 177 193 154 102 90 64 69 62 59 58 40 12 356 346 346 347 329 322 317 319 318 319 324 327 327 333 323 317 317 324 327 326 324 327 323 323 325 323 318 317 314
156 156 156 154 155 157 157 147 149 144 146 147 153 164 165 169 175 186 172 167 175 171 174 210 212 149 111 80 85 98 70 51 26 356 348 356 347 330 324 319 320 324 329 329 329 327 326 327 330 318 331 333 328 325 323 321 321 324 321 321 316 318 315
156 158 158 158 158 156 155 154 152 149 156 158 157 170 177 181 178 177 169 172 172 196 194 193 204 124 119 116 102 98 81 84 190 321 350 347 336 322 321 320 313 320 331 331 327 325 325 324 332 337 337 333 319 311 318 324 323 324 321 321 321 320 319
154 154 155 152 153 157 163 155 158 159 158 162 172 181 187 179 179 182 172 171 183 197 223 215 202 173 157 159 116 92 84 49 231 338 10 351 335 331 317 306 310 316 325 327 324 323 325 328 334 348 334 329 330 334 330 319 319 322 324 325 324 324 324
154 153 157 159 157 163 165 160 163 164 166 175 180 188 190 185 175 182 184 191 199 208 220 228 197 190 203 185 137 93 101 132 206 112 55 345 318 305 303 305 303 319 327 323 325 327 325 329 342 339 335 339 337 330 329 330 326 328 328 327 328 329 327
155 156 159 160 160 158 163 165 164 173 177 178 184 192 201 184 173 172 182 192 214 231 228 223 224 214 206 196 113 81 57 40 62 23 254 288 297 297 308 314 313 314 317 326 330 327 322 330 341 340 341 339 339 333 332 331 333 331 328 331 333 330 330